Location: Newark
(23.3970°S, 47.6010°W)
Time: 01:34:51
(UTC+00:00)

Tiros 1 despin weight - Pass Details

Date: 20 February 2020
Orbit: 593 x 642 km, 48.2° (Epoch: 08 April)

Event Time Altitude Azimuth Distance (km) Brightness Sun altitude
Rises 23:45:05 0° 229° (SW) 2,951 ? -26.5°
Reaches altitude 10° 23:47:27 10° 232° (SW) 2,031 ? -26.9°
Enters shadow 23:51:24 54° 271° (W) 769 ? -27.7°
Maximum altitude 23:52:05 62° 312° (NW) 714 - -27.9°
Drops below altitude 10° 23:56:36 10° 32° (NNE) 1,985 - -28.8°
Sets 23:58:54 0° 36° (NE) 2,876 - -29.3°
